Regional Weather Roundup
Issued by NWS

Home | Current Version | Previous Version | Graphics & Text | Print | Product List | Glossary On
Versions: 1 2 3 4 5 6 7 8 9 10 11 12 13 14 15 16 17 18 19 20 21 22 23 24 25 26 27 28 29 30 31 32 33 34 35 36 37 38 39 40 41
000
ASUS45 KCYS 262110
RWRWY

WYOMING REGIONAL WEATHER ROUNDUP
NATIONAL WEATHER SERVICE CHEYENNE WY
200 PM MST FRI DEC 26 2014

NOTE:  "FAIR" INDICATES FEW OR NO CLOUDS BELOW 12,000 FEET
WITH NO SIGNIFICANT WEATHER AND/OR OBSTRUCTIONS TO VISIBILITY.

WYZ001-262200-
YELLOWSTONE NATIONAL PARK

CITY           SKY/WX    TMP DP  RH WIND       PRES   REMARKS
LK YELLOWSTONE   N/A     14   3  61 VRB3      29.90S
W YELLOWSTONE  NOT AVBL

$$
WYZ002>013-054>058-071-098>099-262200-
NORTHERN WYOMING

CITY           SKY/WX    TMP DP  RH WIND       PRES   REMARKS
JACKSON        PTSUNNY   16   7  67 S3        29.92S
CODY           FAIR      21  16  79 SW7       29.98S WCI  13
GREYBULL       FAIR      20  15  81 CALM      30.05S
WORLAND        CLOUDY    19  16  88 SW3       30.03S FOG
SHERIDAN       FAIR      19  10  68 CALM      30.02S
BUFFALO        FAIR      21  11  65 CALM      29.97F
GILLETTE       CLOUDY    19  12  74 N5        30.00S WCI  12
HULETT           N/A    N/A N/A N/A MISG        N/A
NEWCASTLE      CLOUDY    19  12  73 W5        30.02S WCI  13

$$
WYZ014>020-022>026-101>103-262200-
CENTRAL WYOMING

CITY           SKY/WX    TMP DP  RH WIND       PRES   REMARKS
BIG PINEY      FAIR      17   9  70 CALM      29.89S
PINEDALE       FAIR      16   9  73 CALM      29.89S
DUBOIS         NOT AVBL
LANDER         CLOUDY    18  14  84 CALM      29.95S
RIVERTON       CLOUDY    18  13  80 CALM      29.97S
CASPER         PTSUNNY   17  11  77 W3        29.96S
DOUGLAS        CLOUDY    17  12  80 NW7       29.98S WCI   8

$$
WYZ021-027>030-104>119-262200-
SOUTHERN WYOMING

CITY           SKY/WX    TMP DP  RH WIND       PRES   REMARKS
EVANSTON       CLOUDY    20  11  68 NW8       29.88S WCI  10
KEMMERER       LGT SNOW  19  12  73 W5        29.87F WCI  13
FORT BRIDGER   CLOUDY    20  12  71 SE5       29.91S WCI  14
ROCK SPRINGS   CLOUDY    16   9  74 NE20      29.89R WCI  -1
DIXON          LGT SNOW  20  14  76 W7        29.83R WCI  12
RAWLINS        PTSUNNY   12   6  77 NE18      29.85S WCI  -6
SARATOGA       CLOUDY    16  10  79 NW8       29.82R WCI   5
LARAMIE        CLOUDY    10   5  80 NW7       29.80S WCI  -1
CHEYENNE       CLOUDY    14   7  73 N7        29.87S HAZE    WCI   4
TORRINGTON     CLOUDY    20  14  77 CALM      30.00S HAZE
PINE BLUFFS    LGT SNOW  18  12  79 N8        29.94S WCI   7

$$


USA.gov is the U.S. government's official web portal to all federal, state and local government web resources and services.